TimeEDT,TemperatureF,Dew PointF,Humidity,Sea Level PressureIn,VisibilityMPH,Wind Direction,Wind SpeedMPH,Gust SpeedMPH,PrecipitationIn,Events,Conditions,WindDirDegrees,DateUTC
12:54 AM,54.0,46.0,75,30.27,10.0,West,11.5,-,N/A,,Overcast,280,2013-10-15 04:54:00
1:54 AM,53.1,46.9,80,30.25,10.0,West,8.1,-,N/A,,Overcast,270,2013-10-15 05:54:00
2:54 AM,54.0,46.9,77,30.25,10.0,WNW,5.8,-,N/A,,Overcast,300,2013-10-15 06:54:00
3:54 AM,57.0,46.9,69,30.24,10.0,NNW,4.6,-,N/A,,Overcast,330,2013-10-15 07:54:00
4:54 AM,55.0,48.0,77,30.25,10.0,Calm,Calm,-,N/A,,Overcast,0,2013-10-15 08:54:00
5:54 AM,55.9,48.0,75,30.25,10.0,North,5.8,-,N/A,,Overcast,360,2013-10-15 09:54:00
6:54 AM,55.0,48.0,77,30.26,10.0,NE,3.5,-,N/A,,Overcast,40,2013-10-15 10:54:00
7:54 AM,55.9,48.0,75,30.27,10.0,NE,4.6,-,N/A,,Overcast,50,2013-10-15 11:54:00
8:54 AM,55.9,48.9,77,30.27,10.0,NE,6.9,-,N/A,,Overcast,50,2013-10-15 12:54:00
9:54 AM,57.9,46.9,67,30.27,10.0,NE,4.6,-,N/A,,Overcast,40,2013-10-15 13:54:00
10:54 AM,60.1,48.0,64,30.27,10.0,NE,6.9,-,N/A,,Overcast,40,2013-10-15 14:54:00
11:54 AM,61.0,48.9,64,30.26,10.0,East,5.8,-,N/A,,Overcast,80,2013-10-15 15:54:00
12:54 PM,62.1,48.9,62,30.25,10.0,NE,4.6,-,N/A,,Overcast,40,2013-10-15 16:54:00
1:54 PM,63.0,48.9,60,30.23,10.0,East,4.6,-,N/A,,Overcast,80,2013-10-15 17:54:00
2:54 PM,64.9,48.9,56,30.21,10.0,East,5.8,-,N/A,,Overcast,100,2013-10-15 18:54:00
3:54 PM,64.0,46.9,54,30.20,10.0,East,5.8,-,N/A,,Mostly Cloudy,90,2013-10-15 19:54:00
4:54 PM,63.0,48.0,58,30.19,10.0,ESE,6.9,-,N/A,,Clear,110,2013-10-15 20:54:00
5:54 PM,61.0,48.9,64,30.19,10.0,East,3.5,-,N/A,,Clear,90,2013-10-15 21:54:00
6:54 PM,57.9,48.9,72,30.21,10.0,ENE,5.8,-,N/A,,Clear,70,2013-10-15 22:54:00
7:54 PM,55.0,48.0,77,30.23,10.0,East,4.6,-,N/A,,Clear,80,2013-10-15 23:54:00
8:54 PM,53.1,48.0,83,30.22,10.0,ENE,3.5,-,N/A,,Clear,70,2013-10-16 00:54:00
9:54 PM,53.1,46.9,80,30.22,10.0,NE,3.5,-,N/A,,Clear,50,2013-10-16 01:54:00
10:54 PM,52.0,46.9,83,30.21,10.0,ENE,5.8,-,N/A,,Overcast,60,2013-10-16 02:54:00
11:42 PM,51.1,46.9,86,30.18,10.0,ENE,3.5,-,N/A,,Mostly Cloudy,60,2013-10-16 03:42:00
11:54 PM,52.0,46.9,83,30.19,10.0,NE,3.5,-,N/A,,Mostly Cloudy,50,2013-10-16 03:54:00